CZ-6A DEB

Satellite information

Favourite Embed

Satellite Type and Status

DEBRISIN ORBIT

Key statistics

Satellite CZ-6A DEB at a glance.

Uptime

1070

Days in orbit

Revolutions

≈ 14.7

Per day

Orbit

SSO

Sun Synchronous Orbit

Inclination

98.6

Latest

Satellite identification and parameters

Extended collection of information and parameters for CZ-6A DEB.

Object identification

Identified? True

Debris? True

Object name: CZ-6A DEB

International designator: 2022-151WG

Object number (NORAD): 55215

Object ID (CCSDS): 55215

Country: PEOPLES REPUBLIC OF CHINA (PRC)

Current information (Y/N): Y

RCS size: SMALL

Orbital parameters

Period: 98.209 minutes

Inclination: 98.6479 deg

SMA: 7051.171 km

Apoapsis: 717.361 km

Periapsis: 628.71 km

RAAN: 331.8146 deg

Eccentricy: 0.00628632

Argument of periapsis: 350.2487 deg

Mean anomaly: 9.749 deg

Mean motion: 14.66259814 rev/day

Mean motion (dot): 0.00020658 rev/day2

B* drag term: 0.0036397379 1/REarth

Two-line elements (TLE)

Creation date: Oct. 16, 2025, 2:37 a.m.

Reference frame: TEME

Reference center: EARTH

Epoch: Oct. 15, 2025, 9:45 p.m. UTC

TLE line 0: 0 CZ-6A DEB

TLE line 1: 1 55215U 22151WG 25288.90631861 .00020658 00000-0 36397-2 0 9999

TLE line 2: 2 55215 98.6479 331.8146 0062863 350.2487 9.7490 14.66259814148764

Live tracking on map

Real-time ground track for satellite CZ-6A DEB.

In-orbit conjunctions

A list of the most updated potential collisions computed for object CZ-6A DEB.

Target Orbit TCA Probability of collision Miss distance Type
RUBIN 3/SL-8 SSO 2025-10-05 08:49:48 0.0001967058 999.0 (m) PAYLOAD

Associated space launch

Chinese satellite reported for atmospheric/ocean/environmental/spatial parameter research purposes, details TBD.

CZ-6A DEB was lifted into orbit during the mission ‘Long March 6A | Yunhai 3’, on board a Long March 6A space rocket.

The launch took place on Nov. 11, 2022, 10:52 p.m. from Launch Complex 9A.

For more information about the launch, click the button.

Launch to space Long March 6A | Yunhai 3
Long March 6A | Yunhai 3

Agency: N/A

Status: Launch Successful

Launch date: Nov. 11, 2022, 10:52 p.m. UTC

Rocket: Long March 6A

Launch pad: Launch Complex 9A

Location: Taiyuan Satellite Launch Center, People's Republic of China

...

Latest news about this satellite

There are no fresh news available about this satellite. Check back as we update our databases every day.


Newsletter sign-up

Weekly statistics, charts and insights to help you stay on top of the space industry.